Time,TemperatureF,DewpointF,PressureIn,WindDirection,WindDirectionDegrees,WindSpeedMPH,WindSpeedGustMPH,Humidity,HourlyPrecipIn,Conditions,Clouds,dailyrainin,SolarRadiationWatts/m^2,SoftwareType,DateUTC
2013-04-23 00:02:00,59.0,46.0,-100.00,ESE,109,1.0,4.0,63,0.00,,,0.00,0.000000,,2013-04-23 05:02:00,
2013-04-23 00:32:00,61.0,44.0,-100.00,SE,142,3.0,7.0,53,0.00,,,0.00,0.000000,,2013-04-23 05:32:00,
2013-04-23 00:42:00,61.0,44.0,-100.00,SE,142,3.0,7.0,53,0.00,,,0.00,0.000000,,2013-04-23 05:42:00,
2013-04-23 00:52:00,61.0,44.0,-100.00,SE,142,3.0,7.0,53,0.00,,,0.00,0.000000,,2013-04-23 05:52:00,
2013-04-23 01:02:00,61.0,44.0,-100.00,SE,142,3.0,7.0,53,0.00,,,0.00,0.000000,,2013-04-23 06:02:00,
2013-04-23 01:33:00,59.0,44.0,-100.00,SE,137,2.0,6.0,57,0.00,,,0.00,0.000000,,2013-04-23 06:33:00,
2013-04-23 01:42:00,59.0,44.0,-100.00,SE,137,2.0,6.0,57,0.00,,,0.00,0.000000,,2013-04-23 06:42:00,
2013-04-23 01:52:00,59.0,44.0,-100.00,SE,137,2.0,6.0,57,0.00,,,0.00,0.000000,,2013-04-23 06:52:00,
2013-04-23 02:02:00,59.0,44.0,-100.00,SE,137,2.0,6.0,57,0.00,,,0.00,0.000000,,2013-04-23 07:02:00,
2013-04-23 02:32:00,58.0,44.0,-100.00,SE,140,2.0,6.0,60,0.00,,,0.00,0.000000,,2013-04-23 07:32:00,
2013-04-23 02:42:00,58.0,44.0,-100.00,SE,140,2.0,6.0,60,0.00,,,0.00,0.000000,,2013-04-23 07:42:00,
2013-04-23 02:52:00,58.0,44.0,-100.00,SE,140,2.0,6.0,60,0.00,,,0.00,0.000000,,2013-04-23 07:52:00,
2013-04-23 03:02:00,58.0,44.0,-100.00,SE,140,2.0,6.0,60,0.00,,,0.00,0.000000,,2013-04-23 08:02:00,
2013-04-23 03:32:00,57.0,45.0,-100.00,SE,143,3.0,7.0,63,0.00,,,0.00,0.000000,,2013-04-23 08:32:00,
2013-04-23 03:42:00,57.0,45.0,-100.00,SE,143,3.0,7.0,63,0.00,,,0.00,0.000000,,2013-04-23 08:42:00,
2013-04-23 03:52:00,57.0,45.0,-100.00,SE,143,3.0,7.0,63,0.00,,,0.00,0.000000,,2013-04-23 08:52:00,
2013-04-23 04:01:00,57.0,45.0,-100.00,SE,143,3.0,7.0,63,0.00,,,0.00,0.000000,,2013-04-23 09:01:00,
2013-04-23 04:33:00,57.0,45.0,-100.00,SSE,147,3.0,6.0,65,0.00,,,0.00,0.000000,,2013-04-23 09:33:00,
2013-04-23 04:43:00,57.0,45.0,-100.00,SSE,147,3.0,6.0,65,0.00,,,0.00,0.000000,,2013-04-23 09:43:00,
2013-04-23 04:53:00,57.0,45.0,-100.00,SSE,147,3.0,6.0,65,0.00,,,0.00,0.000000,,2013-04-23 09:53:00,
2013-04-23 05:02:00,57.0,45.0,-100.00,SSE,147,3.0,6.0,65,0.00,,,0.00,0.000000,,2013-04-23 10:02:00,
2013-04-23 05:33:00,58.0,46.0,-100.00,SE,143,2.0,6.0,65,0.00,,,0.00,0.000000,,2013-04-23 10:33:00,
2013-04-23 05:43:00,58.0,46.0,-100.00,SE,143,2.0,6.0,65,0.00,,,0.00,0.000000,,2013-04-23 10:43:00,
2013-04-23 05:52:00,58.0,46.0,-100.00,SE,143,2.0,6.0,65,0.00,,,0.00,0.000000,,2013-04-23 10:52:00,
2013-04-23 06:03:00,58.0,46.0,-100.00,SE,143,2.0,6.0,65,0.00,,,0.00,0.000000,,2013-04-23 11:03:00,
2013-04-23 06:32:00,58.0,47.0,-100.00,South,170,3.0,9.0,68,0.00,,,-99.99,0.000000,,2013-04-23 11:32:00,
2013-04-23 06:43:00,58.0,47.0,-100.00,South,170,3.0,9.0,68,0.00,,,-99.99,0.000000,,2013-04-23 11:43:00,
2013-04-23 06:53:00,58.0,47.0,-100.00,South,170,3.0,9.0,68,0.00,,,-99.99,0.000000,,2013-04-23 11:53:00,
2013-04-23 07:02:00,58.0,47.0,-100.00,South,170,3.0,9.0,68,0.00,,,-99.99,0.000000,,2013-04-23 12:02:00,
2013-04-23 08:32:00,60.0,52.0,-100.00,South,171,4.0,12.0,74,-99.99,,,0.00,78.000000,,2013-04-23 13:32:00,
2013-04-23 08:42:00,60.0,52.0,-100.00,South,171,4.0,12.0,74,-99.99,,,0.00,78.000000,,2013-04-23 13:42:00,
2013-04-23 08:52:00,60.0,52.0,-100.00,South,171,4.0,12.0,74,-99.99,,,0.00,78.000000,,2013-04-23 13:52:00,
2013-04-23 09:02:00,60.0,52.0,-100.00,South,171,4.0,12.0,74,-99.99,,,0.00,78.000000,,2013-04-23 14:02:00,
2013-04-23 09:32:00,62.0,54.0,-100.00,South,177,4.0,9.0,74,0.00,,,0.00,147.000000,,2013-04-23 14:32:00,
2013-04-23 09:42:00,62.0,54.0,-100.00,South,177,4.0,9.0,74,0.00,,,0.00,147.000000,,2013-04-23 14:42:00,
2013-04-23 09:52:00,62.0,54.0,-100.00,South,177,4.0,9.0,74,0.00,,,0.00,147.000000,,2013-04-23 14:52:00,
2013-04-23 10:01:00,62.0,54.0,-100.00,South,177,4.0,9.0,74,0.00,,,0.00,147.000000,,2013-04-23 15:01:00,
2013-04-23 10:32:00,63.0,55.0,-100.00,SSW,196,4.0,13.0,74,0.00,,,0.00,186.000000,,2013-04-23 15:32:00,
2013-04-23 10:43:00,63.0,55.0,-100.00,SSW,196,4.0,13.0,74,0.00,,,0.00,186.000000,,2013-04-23 15:43:00,
2013-04-23 10:53:00,63.0,55.0,-100.00,SSW,196,4.0,13.0,74,0.00,,,0.00,186.000000,,2013-04-23 15:53:00,
2013-04-23 11:03:00,63.0,55.0,-100.00,SSW,196,4.0,13.0,74,0.00,,,0.00,186.000000,,2013-04-23 16:03:00,
2013-04-23 11:34:00,64.0,56.0,-100.00,SSW,198,4.0,12.0,75,0.00,,,0.00,171.000000,,2013-04-23 16:34:00,
2013-04-23 11:43:00,64.0,56.0,-100.00,SSW,198,4.0,12.0,75,0.00,,,0.00,171.000000,,2013-04-23 16:43:00,
2013-04-23 11:53:00,64.0,56.0,-100.00,SSW,198,4.0,12.0,75,0.00,,,0.00,171.000000,,2013-04-23 16:53:00,
2013-04-23 12:02:00,64.0,56.0,-100.00,SSW,198,4.0,12.0,75,0.00,,,0.00,171.000000,,2013-04-23 17:02:00,
2013-04-23 12:33:00,65.0,58.0,-100.00,South,185,4.0,13.0,77,0.00,,,0.00,180.000000,,2013-04-23 17:33:00,
2013-04-23 12:43:00,65.0,58.0,-100.00,South,185,4.0,13.0,77,0.00,,,0.00,180.000000,,2013-04-23 17:43:00,
2013-04-23 12:53:00,65.0,58.0,-100.00,South,185,4.0,13.0,77,0.00,,,0.00,180.000000,,2013-04-23 17:53:00,
2013-04-23 13:02:00,65.0,58.0,-100.00,South,185,4.0,13.0,77,0.00,,,0.00,180.000000,,2013-04-23 18:02:00,
2013-04-23 13:32:00,66.0,59.0,-100.00,SSE,168,5.0,11.0,77,0.00,,,0.00,152.000000,,2013-04-23 18:32:00,
2013-04-23 13:42:00,66.0,59.0,-100.00,SSE,168,5.0,11.0,77,0.00,,,0.00,152.000000,,2013-04-23 18:42:00,
2013-04-23 13:52:00,66.0,59.0,-100.00,SSE,168,5.0,11.0,77,0.00,,,0.00,152.000000,,2013-04-23 18:52:00,
2013-04-23 14:02:00,66.0,59.0,-100.00,SSE,168,5.0,11.0,77,0.00,,,0.00,152.000000,,2013-04-23 19:02:00,
2013-04-23 14:32:00,69.0,58.0,-100.00,South,175,5.0,13.0,69,0.01,,,0.01,370.000000,,2013-04-23 19:32:00,
2013-04-23 14:42:00,69.0,58.0,-100.00,South,175,5.0,13.0,69,0.01,,,0.01,370.000000,,2013-04-23 19:42:00,
2013-04-23 14:52:00,69.0,58.0,-100.00,South,175,5.0,13.0,69,0.01,,,0.01,370.000000,,2013-04-23 19:52:00,
2013-04-23 15:02:00,69.0,58.0,-100.00,South,175,5.0,13.0,69,0.01,,,0.01,370.000000,,2013-04-23 20:02:00,
2013-04-23 15:32:00,72.0,59.0,-100.00,South,185,9.0,19.0,63,0.00,,,0.01,613.000000,,2013-04-23 20:32:00,
2013-04-23 15:42:00,72.0,59.0,-100.00,South,185,9.0,19.0,63,0.00,,,0.01,613.000000,,2013-04-23 20:42:00,
2013-04-23 15:52:00,72.0,59.0,-100.00,South,185,9.0,19.0,63,0.00,,,0.01,613.000000,,2013-04-23 20:52:00,
2013-04-23 16:02:00,72.0,59.0,-100.00,South,185,9.0,19.0,63,0.00,,,0.01,613.000000,,2013-04-23 21:02:00,
2013-04-23 16:33:00,73.0,56.0,-100.00,SSW,200,9.0,23.0,55,0.00,,,0.01,441.000000,,2013-04-23 21:33:00,
2013-04-23 16:43:00,73.0,56.0,-100.00,SSW,200,9.0,23.0,55,0.00,,,0.01,441.000000,,2013-04-23 21:43:00,
2013-04-23 16:52:00,73.0,56.0,-100.00,SSW,200,9.0,23.0,55,0.00,,,0.01,441.000000,,2013-04-23 21:52:00,
2013-04-23 17:03:00,73.0,56.0,-100.00,SSW,200,9.0,23.0,55,0.00,,,0.01,441.000000,,2013-04-23 22:03:00,
2013-04-23 17:33:00,72.0,54.0,-100.00,South,183,9.0,29.0,53,0.00,,,0.01,428.000000,,2013-04-23 22:33:00,
2013-04-23 17:42:00,72.0,54.0,-100.00,South,183,9.0,29.0,53,0.00,,,0.01,428.000000,,2013-04-23 22:42:00,
2013-04-23 17:52:00,72.0,54.0,-100.00,South,183,9.0,29.0,53,0.00,,,0.01,428.000000,,2013-04-23 22:52:00,
2013-04-23 18:03:00,72.0,54.0,-100.00,South,183,9.0,29.0,53,0.00,,,0.01,428.000000,,2013-04-23 23:03:00,
2013-04-23 18:32:00,72.0,54.0,-100.00,South,190,7.0,23.0,54,0.00,,,0.01,204.000000,,2013-04-23 23:32:00,
2013-04-23 18:42:00,72.0,54.0,-100.00,South,190,7.0,23.0,54,0.00,,,0.01,204.000000,,2013-04-23 23:42:00,
2013-04-23 18:52:00,72.0,54.0,-100.00,South,190,7.0,23.0,54,0.00,,,0.01,204.000000,,2013-04-23 23:52:00,
2013-04-23 19:01:00,72.0,54.0,-100.00,South,190,7.0,23.0,54,0.00,,,0.01,204.000000,,2013-04-24 00:01:00,
2013-04-23 20:32:00,70.0,55.0,-100.00,South,186,7.0,15.0,60,-99.99,,,0.01,4.000000,,2013-04-24 01:32:00,
2013-04-23 20:43:00,70.0,55.0,-100.00,South,186,7.0,15.0,60,-99.99,,,0.01,4.000000,,2013-04-24 01:43:00,
2013-04-23 20:52:00,70.0,55.0,-100.00,South,186,7.0,15.0,60,-99.99,,,0.01,4.000000,,2013-04-24 01:52:00,
2013-04-23 21:02:00,70.0,55.0,-100.00,South,186,7.0,15.0,60,-99.99,,,0.01,4.000000,,2013-04-24 02:02:00,
2013-04-23 21:42:00,69.0,55.0,-100.00,South,182,7.0,17.0,60,0.00,,,0.01,0.000000,,2013-04-24 02:42:00,
2013-04-23 21:50:00,69.0,55.0,-100.00,South,182,7.0,17.0,60,0.00,,,0.01,0.000000,,2013-04-24 02:50:00,
2013-04-23 22:00:00,69.0,55.0,-100.00,South,182,7.0,17.0,60,0.00,,,0.01,0.000000,,2013-04-24 03:00:00,
2013-04-23 22:53:00,67.0,57.0,-100.00,WSW,244,7.0,17.0,71,0.01,,,0.02,0.000000,,2013-04-24 03:53:00,
2013-04-23 23:01:00,67.0,57.0,-100.00,WSW,244,7.0,17.0,71,0.01,,,0.02,0.000000,,2013-04-24 04:01:00,
2013-04-23 23:03:00,67.0,57.0,-100.00,WSW,244,7.0,17.0,71,0.01,,,0.02,0.000000,,2013-04-24 04:03:00,
2013-04-23 23:33:00,49.0,48.0,-100.00,NW,325,9.0,23.0,95,0.03,,,0.05,0.000000,,2013-04-24 04:33:00,
2013-04-23 23:43:00,49.0,48.0,-100.00,NW,325,9.0,23.0,95,0.03,,,0.05,0.000000,,2013-04-24 04:43:00,
2013-04-23 23:53:00,49.0,48.0,-100.00,NW,325,9.0,23.0,95,0.03,,,0.05,0.000000,,2013-04-24 04:53:00,